Location: Newark
(45.2500°N, 7.7167°E)
Time: 04:17:51
(UTC+00:00)

Envisat - Visible Passes

Search period start: 18 October 2019 00:00
Search period end: 28 October 2019 00:00
Orbit: 764 x 766 km, 98.1° (Epoch: 17 October)

Date Brightness Start Highest point End Pass type
(mag) Time Alt. Az. Time Alt. Az. Time Alt. Az.
18 Oct 3.1 17:05:49 10° SSE 17:10:46 56° ENE 17:15:45 10° N visible
18 Oct 5.7 18:46:32 10° SW 18:50:08 19° W 18:53:47 10° NW visible
19 Oct 6.2 05:13:45 10° NE 05:16:58 17° E 05:20:09 10° SE visible
19 Oct 4.4 18:08:19 10° SSW 18:13:05 40° W 18:17:53 10° NNW visible
20 Oct 3.0 17:31:08 10° SSE 17:36:13 87° WSW 17:41:20 10° NNW visible
20 Oct 6.2 19:14:37 10° WSW 19:16:00 11° W 19:17:21 10° WNW visible
21 Oct 3.3 16:54:44 10° SE 16:59:33 45° ENE 17:04:23 10° N visible
21 Oct 5.3 18:34:41 10° SSW 18:38:46 24° W 18:42:53 10° NW visible
22 Oct 6.4 05:03:12 10° ENE 05:05:33 13° E 05:07:54 10° ESE visible
22 Oct 3.9 17:56:50 10° S 18:01:46 51° W 18:06:44 10° NNW visible
23 Oct 2.9 17:19:54 10° SSE 17:24:57 76° ENE 17:30:03 10° N visible
23 Oct 6.0 19:01:55 10° WSW 19:04:34 14° W 19:07:14 10° WNW visible
24 Oct 5.9 05:27:23 10° NE 05:31:21 23° E 05:35:19 10° SE visible
24 Oct 4.9 18:22:59 10° SSW 18:27:25 30° W 18:31:52 10° NNW visible
25 Oct 6.7 04:53:44 10° E 04:54:08 10° E 04:54:31 10° E visible
25 Oct 3.5 17:45:26 10° S 17:50:28 64° W 17:55:32 10° NNW visible
26 Oct 3.0 17:08:44 10° SSE 17:13:43 61° ENE 17:18:45 10° N visible
26 Oct 5.8 18:49:46 10° SW 18:53:10 18° W 18:56:35 10° NW visible
27 Oct 6.1 05:16:31 10° NE 05:19:58 18° E 05:23:25 10° SE visible
27 Oct 4.5 18:11:24 10° SSW 18:16:04 37° W 18:20:48 10° NNW visible
